Regional Weather Roundup
Issued by NWS

Home | Current Version | Previous Version | Text Only | Print | Product List | Glossary On
Versions: 1 2 3 4 5 6 7 8 9 10 11 12 13 14 15 16 17 18 19 20 21 22 23 24 25 26 27 28 29 30 31 32 33 34 35 36 37 38 39 40 41 42 43 44 45 46 47 48 49 50
852
ASUS44 KJAN 221010
RWRMS

MISSISSIPPI HOURLY WEATHER ROUNDUP
NATIONAL WEATHER SERVICE JACKSON MS
500 AM CDT FRI AUG 22 2014

NOTE: "FAIR: INDICATES FEW OR NO CLOUDS BELOW 12,000 FEET WITH NO
SIGNIFICANT WEATHER AND/OR OBSTRUCTIONS TO VISIBILITY.

MSZ001>002-007>008-010>013-018>021-025>028-034>036-221100-
NORTHWEST MISSISSIPPI

CITY           SKY/WX    TMP DP  RH WIND       PRES   REMARKS
CLARKSDALE     FAIR      73  73 100 CALM      30.07F
CLEVELAND      FAIR      73  73 100 S3        30.07S
GREENWOOD      CLEAR     73  70  90 S3        30.09R
GREENVILLE     CLEAR     73  70  90 CALM      30.08R
GRENADA        FAIR      72  70  94 CALM      30.09R
OLIVE BRANCH   CLEAR     73  73 100 SW7       30.06S
OXFORD         FAIR      73  70  88 CALM      30.10S
TUNICA         SUNNY     72  70  94 S3        30.07S
$$

MSZ003>006-009-014>017-022>024-029>033-037>039-221100-
NORTHEAST MISSISSIPPI

CITY           SKY/WX    TMP DP  RH WIND       PRES   REMARKS
BELMONT        FAIR      74  72  95 SW3       30.09R
COLUMBUS AFB   CLEAR     73  73 100 CALM      30.08S
CORINTH        FAIR      75  72  88 SW5       30.07S
GOLDN TRIANGLE CLEAR     72  68  88 CALM      30.09S
STARKVILLE     FAIR      70  68  94 CALM      30.09S
TUPELO         CLEAR     75  71  87 W3        30.08R
$$

MSZ040-058-221100-
CENTRAL MISSISSIPPI

CITY           SKY/WX    TMP DP  RH WIND       PRES   REMARKS
JACKSON INTL   CLEAR     73  71  93 CALM      30.10R
JACKSON HAWKNS CLEAR     74  71  91 CALM      30.10R
MERIDIAN KEY   CLEAR     72  69  90 CALM      30.10S
MERIDIAN NAS   CLEAR     74  70  87 W6        30.10R
RAYMOND        FAIR      72  66  83 CALM      30.10S HAZE
VICKSBURG      PTCLDY    73  71  93 CALM      30.09R
$$

MSZ059>079-221100-
SOUTH MISSISSIPPI

CITY           SKY/WX    TMP DP  RH WIND       PRES   REMARKS
BROOKHAVEN     FAIR      72  72 100 CALM      30.12S FOG
COLUMBIA       FAIR      72  72 100 MISG      30.08S FOG
HATTIESBURG    FOG       75  73  93 CALM      30.10S VSB 3/4
MCCOMB         PTCLDY    73  71  93 CALM      30.11R
NATCHEZ        MOCLDY    73  72  94 CALM      30.10R
PINE BELT      PTCLDY    73  70  88 CALM      30.11S
$$

MSZ080>082-221100-
COASTAL MISSISSIPPI

CITY           SKY/WX    TMP DP  RH WIND       PRES   REMARKS
BILOXI         PTCLDY    79  74  84 VRB1      30.08R
PASCAGOULA     CLEAR     74  72  93 CALM      30.08R
GULFPORT       PTCLDY    77  74  90 W5        30.07S
$$



USA.gov is the U.S. government's official web portal to all federal, state and local government web resources and services.